Location: Hermaringen
(48.5952°N, 10.2585°E)
Time: 21:32:52
(UTC+00:00)

Cosmos 371 Rocket - Pass Details

Date: 18 November 2025
Orbit: 674 x 690 km, 74.0° (Epoch: 10 December)

Event Time Altitude Azimuth Distance (km) Brightness Sun altitude
Rises 17:03:33 0° 175° (S) 3,030 6.7 -14.3°
Reaches altitude 10° 17:06:01 10° 166° (SSE) 2,122 5.8 -14.7°
Maximum altitude 17:10:17 33° 103° (ESE) 1,145 3.9 -15.4°
Enters shadow 17:12:02 25° 64° (ENE) 1,367 4.2 -15.7°
